Regional Weather Roundup
Issued by NWS

Home | Current Version | Previous Version | Graphics & Text | Print | Product List | Glossary On
Versions: 1 2 3 4 5 6 7 8 9 10 11 12 13 14 15 16 17 18 19 20 21 22 23 24 25 26 27 28 29 30 31 32 33 34 35 36 37 38 39 40 41 42 43 44 45 46 47 48 49 50
000
ASUS43 KLOT 280909
RWRIL

ILLINOIS REGIONAL WEATHER ROUNDUP
NATIONAL WEATHER SERVICE CHICAGO/ROMEOVILLE IL
400 AM CDT SUN MAY 28 2017

NOTE: "FAIR" INDICATES FEW OR NO CLOUDS BELOW 12,000 FEET WITH NO
SIGNIFICANT WEATHER AND/OR OBSTRUCTIONS TO VISIBILITY.

* THESE STATIONS ARE NOT UNDER NWS QUALITY CONTROL. THEY ALSO MAY NOT
  REPORT WEATHER SUCH AS PRECIPITATION OR FOG.

ILZ001-002-007-009-015-016-024-281000-
NORTHWEST ILLINOIS

CITY           SKY/WX    TMP DP  RH WIND       PRES   REMARKS
MOLINE         CLOUDY    60  58  92 CALM      29.74F FOG
STERLING*      PTCLDY    61  60  97 CALM      29.75F FOG
SAVANNA*       MOCLDY    61  60  97 NW3       29.75F
$$

ILZ003-004-008-010-011-017-018-281000-
NORTH CENTRAL ILLINOIS

CITY           SKY/WX    TMP DP  RH WIND       PRES   REMARKS
ROCKFORD       CLOUDY    60  56  86 CALM      29.77F
FREEPORT*      PTCLDY    58  57  95 CALM      29.77F
ROCHELLE*      CLOUDY    56  56  97 CALM      29.77F FOG
DE KALB*       CLOUDY    58  56  91 SE3       29.78F FOG
PERU*          MOCLDY    61  59  95 NE3       29.76F FOG
$$

ILZ005-006-012>014-019>023-281000-
NORTHEAST ILLINOIS

CITY           SKY/WX    TMP DP  RH WIND       PRES   REMARKS
CHICAGO-OHARE  MOCLDY    60  52  74 N3        29.76F
CHICAGO-MIDWAY CLOUDY    59  53  80 CALM      29.76F
AURORA         CLOUDY    58  56  93 CALM      29.77F
LANSING*       CLOUDY    56  56  99 CALM      29.76F
JOLIET*        CLOUDY    58  57  98 CALM      29.76F FOG
WAUKEGAN       CLOUDY    54  52  93 CALM      29.77F
DUPAGE AIRPORT CLOUDY    58  56  93 CALM      29.76F
KANKAKEE*      CLOUDY    60  59  97 CALM      29.75F FOG
WHEELING       CLEAR     57  54  89 CALM      29.78F
MORRIS*        CLOUDY    59  56  92 CALM      29.74F FOG
ROMEOVILLE*    CLOUDY    56  56 100 NE3       29.76F FOG
NORTHERLY ISL    N/A     56  52  86 CALM        N/A
$$

LMZ740>746-281000-
SOUTHERN LAKE MICHIGAN

STATION/POSITION SKY/WX   TEMP    WIND        PRES    VSBY  WAVE
                          AIR SEA DIR/SP/G                  HT/PER
                          (F)     (DEG/KT/KT) (MB)    (MI)  (FT/S)
SOUTHERN BUOY              53 49  130/  4/  4 1009.2          0
WILMETTE HARBOR            53 55                N/A           0
HARRISON CRIB              58        CALM       N/A
BURNHAM HARBOR             56     350/  1/  2   N/A
CALUMET HARBOR             55     350/  2/  3 1007.7F
BURNS HARBOR               67     140/  8/ 12 1008.8F
MICHIGAN CITY              60     120/  5/  6   N/A
MICHIGAN CITY 6N           58 55   90/  4/  4   N/A           0
ST. JOSEPH                 60 59  140/  4/  6 1008.3          0
$$

ILZ025>027-034>036-040-047-049-050-058-095>099-281000-
WEST-CENTRAL ILLINOIS

CITY           SKY/WX    TMP DP  RH WIND       PRES   REMARKS
QUINCY         CLOUDY    63  62  97 NW7       29.74F FOG
GALESBURG*     CLOUDY    59  59 100 CALM      29.74F FOG
MACOMB*        CLOUDY    61  60  97 N7        29.77S FOG
JACKSONVILLE*  FOG       61  61  99 NW3       29.73R VSB 1/4
PITTSFIELD*    MOCLDY    64  62  94 NW5       29.75R
$$

ILZ028>032-037-038-041>044-048-051>054-059>061-281000-
CENTRAL ILLINOIS

CITY           SKY/WX    TMP DP  RH WIND       PRES   REMARKS
PONTIAC        CLOUDY    63  62  99 CALM      29.75F FOG
BLOOMINGTON    CLOUDY    61  60  97 NE5       29.74F
DECATUR        CLOUDY    62  61  96 CALM      29.72F FOG
PEORIA         CLOUDY    64  62  93 N3        29.74F
LACON*         MOCLDY    60  60 100 CALM      29.74F FOG
LINCOLN*       CLOUDY    65  64  96 CALM      29.72F
SPRINGFIELD    CLOUDY    63  61  93 CALM      29.72F
TAYLORVILLE    MOCLDY    60  60  99 SW3       29.72S
$$

ILZ033-039-045-046-055>057-062-063-281000-
EAST-CENTRAL ILLINOIS

CITY           SKY/WX    TMP DP  RH WIND       PRES   REMARKS
CHAMPAIGN      PTCLDY    64  61  90 NE9       29.72F
RANTOUL*       CLOUDY    64  63  96 NE6       29.73F
MATTOON        MOCLDY    64  64 100 CALM      29.70F FOG
PARIS*         MOCLDY    63  63  99 E5        29.73F
$$

ILZ079-100>102-281000-
SOUTHWEST ILLINOIS

CITY           SKY/WX    TMP DP  RH WIND       PRES   REMARKS
ALTON          CLOUDY    62  60  96 SW3       29.76R
BELLEVILLE     CLOUDY    63  60  93 W7        29.77R
CAHOKIA*       CLOUDY    65  60  84 S3        29.76R
SPARTA*        CLOUDY    63  60  92 S8        29.79F
$$

ILZ064>066-069>071-074>076-080>082-084>086-088>090-092>094-281000-
SOUTH-CENTRAL ILLINOIS

CITY           SKY/WX    TMP DP  RH WIND       PRES   REMARKS
CARBONDALE     CLOUDY    63  63 100 SW9       29.81R
CAIRO*         CLOUDY    64  63  95 NW5       29.82R
EFFINGHAM*     CLOUDY    62  62 100 CALM      29.75R
MARION         CLOUDY    64  64 100 SW5       29.81R
MT. VERNON       N/A     62  61  96 S5        29.76F
CENTRALIA*     CLOUDY    64  62  96 S5        29.75S
SALEM*         CLOUDY    65  61  88 S7        29.76R
METROPOLIS*    CLOUDY    64  63  95 NW7       29.83R
$$

ILZ067-068-072-073-078-083-087-091-281000-
SOUTHEAST ILLINOIS

CITY           SKY/WX    TMP DP  RH WIND       PRES   REMARKS
LAWRENCEVILLE  CLOUDY    65  61  87 S8        29.73F
FLORA*         MOCLDY    65  61  84 SW10      29.75R
FAIRFIELD*     CLOUDY    65  61  87 SW6       29.75S
HARRISBURG*    MOCLDY    64  62  93 SW7       29.79R
ROBINSON*      CLOUDY    64  61  90 S6        29.74F
CARMI*         CLOUDY    65  61  88 SW6       29.75F
$$

ABBREVIATIONS USED IN REMARKS
   TC - TEMPERATURE IN CELSIUS
  WCI - WIND CHILL INDEX
   HX - HEAT INDEX
  VSB - VISIBILITY
$$





USA.gov is the U.S. government's official web portal to all federal, state and local government web resources and services.